sat.trackr.live / text

‹ back to catalog

STARLINK-36952

NORAD 68062 · 2026-041Y

PAYLOAD ACTIVE UNKNOWN

§ Identity

Operator
Country
US
Launch date
2026-03-02
Launch site
AFETR
Launch vehicle
Mass (kg)
RCS (m²)

Purposes: comms

External: N2YO · Heavens-Above · Gunter

§ Orbital elements

Epoch: 2026-05-25T03:00:12.864960Z

Period
93.85 min
Inclination
53.1597°
Eccentricity
0.0000926
Mean motion
15.34412573 rev/d
Perigee alt
462.0 km
Apogee alt
463.3 km
Semi-major
6,840.8 km
B*
-1.6757e-4
RAAN
53.2337°
Arg perigee
82.9547°
Mean anomaly
277.1560°
Rev number
1,311

§ Raw data

STARLINK-369521 68062U 26041Y   26145.12514890 -.00006035  00000+0 -16757-3 0  99972 68062  53.1597  53.2337 0000926  82.9547 277.1560 15.34412573 13118

JSON: /api/v1/satellites/68062 · /tle

For live sub-satellite position, see the globe view (requires WebGL).

§ Visibility from observer

Set your observer location to see the next 7 days of passes ≥ 10°. The values pass through the URL so the page stays shareable.

No JS? Fill the form by hand. The geolocation button needs JavaScript.